CWI845 HKEL-HASO

Flight info

Callsign CWI845
Flight time 1h 21m
Altitude 36000
Route USERO UN554 KAMAS UA727 LOV UM220 AVAGI M220 IMTOR
Aircraft A320/M-SDE3FGHIRWY/LB1

Departure

Time 2026-04-26 06:43
Airport Eldoret International Airport (HKEL)

Arrival

Time 2026-04-26 08:05
Airport Asosa Airport (HASO)
Time Latitude Longitude Altitude Speed Heading
2026-04-26 06:39 0.40375 35.22354 6846 ft 0 kts 276°
2026-04-26 06:41 0.40375 35.22352 6846 ft 3 kts 273°
2026-04-26 06:41 0.40320 35.22280 6844 ft 25 kts 216°
2026-04-26 06:42 0.40137 35.22176 6841 ft 20 kts 180°
2026-04-26 06:42 0.40103 35.22222 6842 ft 18 kts 84°
2026-04-26 06:42 0.40171 35.22610 6853 ft 93 kts 77°
2026-04-26 06:42 0.40357 35.23439 6881 ft 149 kts 78°
2026-04-26 06:43 0.40597 35.24600 6984 ft 186 kts 77°
2026-04-26 06:43 0.40859 35.25919 7626 ft 201 kts 78°
2026-04-26 06:43 0.41190 35.27348 8111 ft 222 kts 67°
2026-04-26 06:43 0.42164 35.28596 8538 ft 243 kts 33°
2026-04-26 06:44 0.43788 35.29298 9037 ft 268 kts 20°
2026-04-26 06:44 0.45620 35.29920 9641 ft 285 kts 19°
2026-04-26 06:44 0.47529 35.30549 10496 ft 292 kts 19°
2026-04-26 06:44 0.49535 35.31211 10928 ft 316 kts 19°
2026-04-26 06:45 0.51704 35.31934 11221 ft 340 kts 19°
2026-04-26 06:45 0.54027 35.32715 11475 ft 364 kts 19°
2026-04-26 06:45 0.56505 35.33554 11738 ft 386 kts 19°
2026-04-26 06:45 0.59045 35.34420 12343 ft 395 kts 19°
2026-04-26 06:46 0.61663 35.35314 13114 ft 400 kts 20°
2026-04-26 06:46 0.64313 35.36216 13925 ft 404 kts 20°
2026-04-26 06:46 0.66988 35.37128 14638 ft 409 kts 19°
2026-04-26 06:46 0.69696 35.38050 15340 ft 413 kts 20°
2026-04-26 06:47 0.72428 35.38983 16024 ft 417 kts 20°
2026-04-26 06:47 0.75193 35.39928 16724 ft 422 kts 20°
2026-04-26 06:47 0.77983 35.40882 17417 ft 426 kts 20°
2026-04-26 06:47 0.80802 35.41847 18108 ft 431 kts 20°
2026-04-26 06:48 0.83658 35.42821 18736 ft 435 kts 20°
2026-04-26 06:48 0.86594 35.43627 19317 ft 441 kts
2026-04-26 06:48 0.89666 35.43924 19920 ft 445 kts
2026-04-26 06:48 0.92762 35.44176 20551 ft 449 kts
2026-04-26 06:49 0.95891 35.44420 21167 ft 453 kts
2026-04-26 06:49 0.97980 35.44579 21594 ft 456 kts
2026-04-26 06:49 1.02241 35.44903 22446 ft 462 kts
2026-04-26 06:49 1.05463 35.45148 23059 ft 466 kts
2026-04-26 06:50 1.08702 35.45397 23785 ft 466 kts
2026-04-26 06:50 1.11929 35.45650 24495 ft 464 kts
2026-04-26 06:50 1.15138 35.45906 25155 ft 462 kts
2026-04-26 06:50 1.18332 35.46160 25754 ft 460 kts
2026-04-26 06:51 1.21515 35.46413 26289 ft 458 kts
2026-04-26 06:51 1.26785 35.46824 27073 ft 456 kts
2026-04-26 06:51 1.29946 35.47069 27494 ft 455 kts
2026-04-26 06:52 1.33098 35.47315 27886 ft 454 kts
2026-04-26 06:52 1.36240 35.47561 28265 ft 453 kts
2026-04-26 06:52 1.39377 35.47809 28613 ft 452 kts
2026-04-26 06:52 1.42514 35.48057 28986 ft 451 kts
2026-04-26 06:53 1.45643 35.48304 29350 ft 450 kts
2026-04-26 06:53 1.48765 35.48549 29742 ft 449 kts
2026-04-26 06:53 1.51881 35.48791 30115 ft 448 kts
2026-04-26 06:53 1.54992 35.49033 30451 ft 447 kts
2026-04-26 06:54 1.58093 35.49275 30800 ft 446 kts
2026-04-26 06:54 1.61182 35.49519 31151 ft 445 kts
2026-04-26 06:54 1.64227 35.49759 31474 ft 444 kts
2026-04-26 06:54 1.67307 35.49999 31816 ft 443 kts
2026-04-26 06:55 1.70381 35.50239 32159 ft 442 kts
2026-04-26 06:55 1.73446 35.50482 32515 ft 441 kts
2026-04-26 06:55 1.76505 35.50725 32864 ft 440 kts
2026-04-26 06:55 1.79562 35.50967 33234 ft 439 kts
2026-04-26 06:56 1.82603 35.51207 33604 ft 438 kts
2026-04-26 06:56 1.85637 35.51443 33949 ft 437 kts
2026-04-26 06:56 1.88668 35.51679 34241 ft 436 kts
2026-04-26 06:56 1.91694 35.51918 34514 ft 436 kts
2026-04-26 06:57 1.94717 35.52159 34782 ft 435 kts
2026-04-26 06:57 1.97738 35.52397 34982 ft 437 kts
2026-04-26 06:57 2.03876 35.52878 35036 ft 449 kts
2026-04-26 06:58 2.10193 35.53370 35036 ft 462 kts
2026-04-26 06:58 2.16689 35.53885 35031 ft 475 kts
2026-04-26 06:59 2.23362 35.54414 35119 ft 480 kts
2026-04-26 06:59 2.26644 35.54670 35294 ft 470 kts
2026-04-26 06:59 2.29897 35.54923 35442 ft 469 kts
2026-04-26 07:00 2.33141 35.55177 35315 ft 466 kts
2026-04-26 07:00 2.36366 35.55428 35022 ft 465 kts
2026-04-26 07:00 2.42809 35.55852 35052 ft 469 kts 359°
2026-04-26 07:01 2.46070 35.55611 35278 ft 471 kts 357°
2026-04-26 07:01 2.49334 35.55352 35512 ft 471 kts 357°
2026-04-26 07:01 2.52605 35.55099 35746 ft 471 kts 358°
2026-04-26 07:01 2.55870 35.54845 35947 ft 471 kts 357°
2026-04-26 07:02 2.62393 35.54328 36027 ft 470 kts 357°
2026-04-26 07:02 2.68917 35.53804 36022 ft 470 kts 357°
2026-04-26 07:03 2.75431 35.53278 36013 ft 470 kts 357°
2026-04-26 07:03 2.81944 35.52754 36011 ft 471 kts 357°
2026-04-26 07:04 2.88512 35.52228 36003 ft 475 kts 357°
2026-04-26 07:04 2.95104 35.51692 35996 ft 476 kts 357°
2026-04-26 07:05 3.01697 35.51161 35985 ft 476 kts 357°
2026-04-26 07:05 3.08296 35.50636 35981 ft 476 kts 357°
2026-04-26 07:06 3.14852 35.50110 35987 ft 476 kts 357°
2026-04-26 07:06 3.21448 35.49583 35977 ft 475 kts 357°
2026-04-26 07:07 3.28039 35.49054 35989 ft 475 kts 357°
2026-04-26 07:07 3.34633 35.48525 35990 ft 475 kts 357°
2026-04-26 07:08 3.41223 35.47999 36003 ft 475 kts 357°
2026-04-26 07:08 3.47819 35.47464 36004 ft 475 kts 357°
2026-04-26 07:09 3.54415 35.46930 36001 ft 476 kts 357°
2026-04-26 07:09 3.61013 35.46410 36010 ft 476 kts 357°
2026-04-26 07:11 3.77519 35.45071 36015 ft 476 kts 357°
2026-04-26 07:11 3.84123 35.44538 36017 ft 476 kts 357°
2026-04-26 07:12 3.90731 35.44006 36018 ft 477 kts 357°
2026-04-26 07:12 3.97345 35.43478 36019 ft 477 kts 356°
2026-04-26 07:13 4.03915 35.42565 36021 ft 478 kts 351°
2026-04-26 07:13 4.10454 35.41379 36018 ft 477 kts 351°
2026-04-26 07:14 4.16947 35.40196 36012 ft 477 kts 352°
2026-04-26 07:14 4.23475 35.39008 36013 ft 477 kts 351°
2026-04-26 07:15 4.30007 35.37821 36019 ft 477 kts 352°
2026-04-26 07:15 4.36540 35.36637 36010 ft 477 kts 352°
2026-04-26 07:16 4.43082 35.35454 36013 ft 478 kts 351°
2026-04-26 07:16 4.49627 35.34242 36010 ft 478 kts 351°
2026-04-26 07:17 4.56148 35.32883 36018 ft 479 kts 349°
2026-04-26 07:17 4.62661 35.31432 36024 ft 479 kts 349°
2026-04-26 07:18 4.69171 35.29999 36021 ft 479 kts 349°
2026-04-26 07:18 4.75686 35.28596 36019 ft 479 kts 350°
2026-04-26 07:19 4.82208 35.27206 36024 ft 479 kts 350°
2026-04-26 07:19 4.88727 35.25814 36018 ft 479 kts 349°
2026-04-26 07:20 4.95249 35.24417 36026 ft 479 kts 349°
2026-04-26 07:20 5.01766 35.23008 36025 ft 479 kts 349°
2026-04-26 07:21 5.08287 35.21603 36023 ft 479 kts 349°
2026-04-26 07:21 5.14805 35.20201 36030 ft 479 kts 349°
2026-04-26 07:22 5.21323 35.18804 36029 ft 479 kts 349°
2026-04-26 07:22 5.27840 35.17406 36035 ft 479 kts 349°
2026-04-26 07:23 5.34312 35.16013 36013 ft 479 kts 349°
2026-04-26 07:23 5.40837 35.14612 36019 ft 480 kts 349°
2026-04-26 07:24 5.47360 35.13204 36022 ft 480 kts 349°
2026-04-26 07:24 5.53888 35.11790 36034 ft 480 kts 349°
2026-04-26 07:25 5.60422 35.10387 36036 ft 480 kts 349°
2026-04-26 07:25 5.66957 35.08986 36034 ft 480 kts 349°
2026-04-26 07:26 5.73486 35.07578 36046 ft 480 kts 349°
2026-04-26 07:26 5.80009 35.06168 36045 ft 480 kts 349°
2026-04-26 07:27 5.86541 35.04759 36042 ft 480 kts 349°
2026-04-26 07:27 5.93063 35.03364 36031 ft 479 kts 349°
2026-04-26 07:28 5.99580 35.01962 36013 ft 479 kts 350°
2026-04-26 07:28 6.06098 35.00553 36011 ft 479 kts 350°
2026-04-26 07:29 6.12610 34.99145 36009 ft 479 kts 349°
2026-04-26 07:29 6.19136 34.97734 36011 ft 479 kts 349°
2026-04-26 07:30 6.25600 34.96338 36007 ft 478 kts 350°
2026-04-26 07:30 6.32107 34.94935 36012 ft 478 kts 350°
2026-04-26 07:31 6.38618 34.93526 36004 ft 478 kts 349°
2026-04-26 07:31 6.45124 34.92118 35994 ft 478 kts 349°
2026-04-26 07:32 6.51629 34.90714 35996 ft 478 kts 350°
2026-04-26 07:32 6.58147 34.89308 35997 ft 480 kts 349°
2026-04-26 07:33 6.64680 34.87906 36010 ft 481 kts 349°
2026-04-26 07:33 6.71220 34.86490 36004 ft 480 kts 349°
2026-04-26 07:34 6.77756 34.85084 36016 ft 480 kts 350°
2026-04-26 07:34 6.84355 34.83986 36023 ft 480 kts 354°
2026-04-26 07:35 6.90947 34.83215 36008 ft 481 kts 355°
2026-04-26 07:35 6.97601 34.82440 36011 ft 482 kts 354°
2026-04-26 07:36 7.04245 34.81568 36006 ft 482 kts 353°
2026-04-26 07:36 7.10885 34.80654 36017 ft 482 kts 354°
2026-04-26 07:37 7.17527 34.79745 36009 ft 481 kts 354°
2026-04-26 07:37 7.24173 34.78851 36006 ft 482 kts 354°
2026-04-26 07:38 7.30820 34.77973 36004 ft 482 kts 354°
2026-04-26 07:38 7.37468 34.77086 36010 ft 482 kts 354°
2026-04-26 07:39 7.44115 34.76188 36012 ft 482 kts 354°
2026-04-26 07:39 7.50766 34.75298 36019 ft 482 kts 353°
2026-04-26 07:40 7.57433 34.74414 36019 ft 483 kts 353°
2026-04-26 07:40 7.64101 34.73522 36015 ft 483 kts 353°
2026-04-26 07:41 7.69639 34.72773 36008 ft 483 kts 353°
2026-04-26 07:41 7.76306 34.71878 36013 ft 483 kts 353°
2026-04-26 07:42 7.82972 34.70986 36023 ft 483 kts 353°
2026-04-26 07:42 7.89633 34.70100 36023 ft 483 kts 353°
2026-04-26 07:43 7.96297 34.69203 36010 ft 483 kts 353°
2026-04-26 07:43 8.02951 34.68305 36017 ft 483 kts 353°
2026-04-26 07:44 8.09616 34.67410 36025 ft 483 kts 353°
2026-04-26 07:44 8.16280 34.66516 36033 ft 484 kts 353°
2026-04-26 07:45 8.22904 34.65626 36017 ft 483 kts 353°
2026-04-26 07:45 8.29564 34.64730 36037 ft 483 kts 353°
2026-04-26 07:46 8.36227 34.63833 36037 ft 483 kts 353°
2026-04-26 07:46 8.42900 34.62939 36042 ft 484 kts 354°
2026-04-26 07:47 8.49574 34.62046 36064 ft 484 kts 353°
2026-04-26 07:47 8.56247 34.61154 36065 ft 483 kts 353°
2026-04-26 07:48 8.62914 34.60254 36070 ft 483 kts 354°
2026-04-26 07:48 8.69573 34.59354 36059 ft 483 kts 354°
2026-04-26 07:49 8.76225 34.58458 36060 ft 482 kts 353°
2026-04-26 07:49 8.82868 34.57557 36063 ft 481 kts 353°
2026-04-26 07:50 8.92826 34.56214 36064 ft 481 kts 353°
2026-04-26 07:50 8.99463 34.55320 36064 ft 482 kts 354°
2026-04-26 07:51 9.06106 34.54424 36060 ft 481 kts 354°
2026-04-26 07:51 9.12745 34.53531 36053 ft 481 kts 354°
2026-04-26 07:52 9.19381 34.52638 36051 ft 481 kts 354°
2026-04-26 07:52 9.25917 34.51751 35598 ft 468 kts 353°
2026-04-26 07:53 9.29045 34.50935 34663 ft 466 kts 338°
2026-04-26 07:53 9.31843 34.49280 33607 ft 467 kts 321°
2026-04-26 07:53 9.34178 34.46983 32296 ft 471 kts 314°
2026-04-26 07:53 9.36399 34.44522 30864 ft 476 kts 313°
2026-04-26 07:54 9.38619 34.42005 29266 ft 482 kts 313°
2026-04-26 07:54 9.40848 34.39440 27577 ft 486 kts 313°
2026-04-26 07:54 9.43096 34.36872 25923 ft 488 kts 313°
2026-04-26 07:54 9.45346 34.34286 24224 ft 491 kts 313°
2026-04-26 07:55 9.47588 34.31683 22805 ft 485 kts 313°
2026-04-26 07:55 9.49960 34.29332 21439 ft 471 kts 326°
2026-04-26 07:55 9.52771 34.27750 20156 ft 457 kts 341°
2026-04-26 07:55 9.55738 34.26658 18824 ft 450 kts 343°
2026-04-26 07:56 9.58700 34.25721 17432 ft 441 kts 351°
2026-04-26 07:56 9.61704 34.25566 16160 ft 426 kts
2026-04-26 07:56 9.64604 34.25961 14886 ft 416 kts 17°
2026-04-26 07:56 9.67338 34.26796 13716 ft 408 kts 19°
2026-04-26 07:57 9.70028 34.27635 12501 ft 399 kts 18°
2026-04-26 07:57 9.72654 34.28452 11323 ft 391 kts 18°
2026-04-26 07:57 9.75237 34.29260 10522 ft 387 kts 18°
2026-04-26 07:57 9.77807 34.30067 10213 ft 386 kts 18°
2026-04-26 07:58 9.80366 34.30876 10051 ft 384 kts 18°
2026-04-26 07:58 9.82814 34.31648 9968 ft 349 kts 18°
2026-04-26 07:58 9.85025 34.32345 9891 ft 319 kts 18°
2026-04-26 07:58 9.87058 34.32985 9757 ft 294 kts 18°
2026-04-26 07:59 9.88959 34.33584 9442 ft 280 kts 18°
2026-04-26 07:59 9.90801 34.34169 8895 ft 276 kts 18°
2026-04-26 07:59 9.92629 34.34748 8295 ft 275 kts 17°
2026-04-26 07:59 9.94431 34.35319 7720 ft 275 kts 17°
2026-04-26 08:00 9.96255 34.35897 7124 ft 275 kts 16°
2026-04-26 08:00 9.98073 34.36474 6703 ft 272 kts 16°
2026-04-26 08:00 9.99905 34.37055 6584 ft 279 kts 15°
2026-04-26 08:00 10.01726 34.37634 6584 ft 265 kts 15°
2026-04-26 08:01 10.03467 34.38187 6503 ft 261 kts 15°
2026-04-26 08:01 10.05178 34.38726 6391 ft 253 kts 15°
2026-04-26 08:01 10.06777 34.39410 6241 ft 250 kts 32°
2026-04-26 08:01 10.07999 34.40680 6138 ft 255 kts 56°
2026-04-26 08:02 10.08607 34.42360 6018 ft 257 kts 83°
2026-04-26 08:02 10.08474 34.44144 5896 ft 253 kts 108°
2026-04-26 08:02 10.07765 34.45791 5793 ft 254 kts 116°
2026-04-26 08:02 10.07021 34.47394 5663 ft 248 kts 117°
2026-04-26 08:03 10.06295 34.48966 5548 ft 244 kts 115°
2026-04-26 08:03 10.05597 34.50479 5571 ft 234 kts 116°
2026-04-26 08:03 10.04923 34.51942 5621 ft 230 kts 115°
2026-04-26 08:03 10.04249 34.53410 5601 ft 221 kts 116°
2026-04-26 08:04 10.03635 34.54751 5377 ft 197 kts 116°
2026-04-26 08:04 10.03086 34.55947 5224 ft 181 kts 116°
2026-04-26 08:04 10.02570 34.57076 5089 ft 171 kts 122°
2026-04-26 08:04 10.02077 34.58094 5019 ft 114 kts 115°
2026-04-26 08:05 10.01926 34.58434 5005 ft 10 kts 79°
2026-04-26 08:05 10.01953 34.58402 5006 ft 30 kts 296°
2026-04-26 08:05 10.02135 34.58009 5022 ft 75 kts 294°
2026-04-26 08:05 10.02330 34.57555 5033 ft 55 kts 294°
2026-04-26 08:06 10.02457 34.57387 5041 ft 9 kts 20°
2026-04-26 08:06 10.02522 34.57418 5039 ft 11 kts 24°
2026-04-26 08:06 10.02595 34.57447 5042 ft 8 kts 355°
2026-04-26 08:06 10.02611 34.57427 5041 ft 0 kts 296°